�������l�o���
Date,Time,MP-1(��Sv/h),MP-2(��Sv/h),MP-3(��Sv/h),MP-4(��Sv/h),MP-5(��Sv/h),MP-6(��Sv/h),MP-7(��Sv/h),MP-8(��Sv/h),����,����(m/s),���J
2018/04/23,00:00,0.870,1.451,0.901,1.667,1.161,0.482,0.850,0.817,�k�k��,6.6,��
2018/04/23,00:10,0.870,1.450,0.901,1.666,1.164,0.484,0.848,0.817,�k�k��,6.8,��
2018/04/23,00:20,0.871,1.452,0.903,1.669,1.161,0.483,0.848,0.817,�k�k��,6.5,��
2018/04/23,00:30,0.869,1.454,0.901,1.669,1.161,0.483,0.849,0.815,�k�k��,7.3,��
2018/04/23,00:40,0.870,1.456,0.904,1.667,1.161,0.483,0.849,0.816,�k�k��,6.2,��
2018/04/23,00:50,0.869,1.454,0.902,1.667,1.161,0.482,0.848,0.815,�k�k��,5.8,��
2018/04/23,01:00,0.872,1.453,0.902,1.669,1.162,0.483,0.849,0.815,�k�k��,5.6,��
2018/04/23,01:10,0.871,1.453,0.900,1.665,1.165,0.483,0.849,0.817,�k�k��,6.0,��
2018/04/23,01:20,0.868,1.452,0.901,1.668,1.163,0.483,0.849,0.816,�k�k��,5.2,��
2018/04/23,01:30,0.870,1.453,0.899,1.668,1.164,0.482,0.849,0.816,�k�k��,4.9,��
2018/04/23,01:40,0.869,1.453,0.902,1.669,1.163,0.483,0.847,0.815,�k�k��,5.5,��
2018/04/23,01:50,0.868,1.454,0.901,1.667,1.161,0.482,0.847,0.815,�k�k��,5.9,��
2018/04/23,02:00,0.870,1.452,0.902,1.667,1.162,0.481,0.850,0.816,�k�k��,6.6,��
2018/04/23,02:10,0.870,1.454,0.903,1.670,1.162,0.483,0.849,0.814,�k�k��,6.1,��
2018/04/23,02:20,0.869,1.456,0.899,1.669,1.164,0.482,0.850,0.817,�k�k��,6.3,��
2018/04/23,02:30,0.868,1.451,0.900,1.666,1.164,0.482,0.850,0.815,�k�k��,6.7,��
2018/04/23,02:40,0.869,1.452,0.901,1.664,1.163,0.481,0.849,0.815,�k�k��,5.3,��
2018/04/23,02:50,0.869,1.453,0.902,1.668,1.165,0.482,0.850,0.816,�k,5.9,��
2018/04/23,03:00,0.871,1.452,0.900,1.667,1.161,0.483,0.848,0.815,�k�k��,6.1,��
2018/04/23,03:10,0.870,1.452,0.898,1.665,1.165,0.482,0.848,0.816,�k�k��,6.2,��
2018/04/23,03:20,0.868,1.453,0.900,1.670,1.162,0.481,0.850,0.816,�k�k��,6.0,��
2018/04/23,03:30,0.869,1.451,0.901,1.667,1.162,0.481,0.851,0.814,�k�k��,5.9,��
2018/04/23,03:40,0.871,1.451,0.900,1.667,1.163,0.481,0.849,0.815,�k�k��,6.3,��
2018/04/23,03:50,0.869,1.452,0.901,1.667,1.163,0.482,0.850,0.816,�k�k��,5.8,��
2018/04/23,04:00,0.870,1.450,0.899,1.669,1.161,0.482,0.849,0.816,�k�k��,6.2,��
2018/04/23,04:10,0.869,1.450,0.901,1.668,1.163,0.480,0.849,0.815,�k�k��,6.5,��
2018/04/23,04:20,0.868,1.452,0.898,1.669,1.163,0.482,0.848,0.815,�k�k��,6.4,��
2018/04/23,04:30,0.870,1.454,0.901,1.667,1.163,0.482,0.850,0.817,�k�k��,5.8,��
2018/04/23,04:40,0.866,1.453,0.899,1.669,1.163,0.481,0.848,0.815,�k�k��,6.0,��
2018/04/23,04:50,0.869,1.452,0.901,1.664,1.162,0.481,0.848,0.815,�k,6.3,��
2018/04/23,05:00,0.868,1.452,0.902,1.665,1.161,0.480,0.850,0.815,�k�k��,7.3,��
2018/04/23,05:10,0.869,1.450,0.899,1.666,1.162,0.481,0.848,0.815,�k�k��,7.0,��
2018/04/23,05:20,0.867,1.452,0.901,1.668,1.161,0.482,0.848,0.817,�k�k��,7.1,��
2018/04/23,05:30,0.869,1.451,0.900,1.669,1.164,0.483,0.849,0.815,�k,7.6,��
2018/04/23,05:40,0.869,1.451,0.898,1.668,1.164,0.482,0.850,0.816,�k,6.9,��
2018/04/23,05:50,0.868,1.452,0.899,1.669,1.164,0.483,0.849,0.814,�k,6.7,��
2018/04/23,06:00,0.868,1.452,0.898,1.670,1.162,0.479,0.850,0.816,�k,6.0,��
2018/04/23,06:10,0.868,1.453,0.898,1.669,1.161,0.482,0.849,0.816,�k,6.6,��
2018/04/23,06:20,0.868,1.452,0.898,1.665,1.162,0.481,0.849,0.815,�k�k��,7.6,�L
2018/04/23,06:30,0.867,1.450,0.900,1.667,1.158,0.482,0.848,0.815,�k,6.7,��
2018/04/23,06:40,0.868,1.452,0.900,1.668,1.162,0.480,0.849,0.815,�k,6.9,��
2018/04/23,06:50,0.867,1.452,0.900,1.668,1.160,0.481,0.849,0.814,�k�k��,8.0,��
2018/04/23,07:00,0.869,1.452,0.898,1.667,1.159,0.481,0.850,0.816,�k�k��,7.3,��
2018/04/23,07:10,0.868,1.452,0.900,1.667,1.161,0.481,0.847,0.817,�k,7.0,��
2018/04/23,07:20,0.868,1.449,0.901,1.665,1.163,0.480,0.849,0.816,�k,8.1,��
2018/04/23,07:30,0.868,1.451,0.900,1.665,1.159,0.480,0.848,0.813,�k�k��,7.4,��
2018/04/23,07:40,0.868,1.453,0.899,1.669,1.160,0.481,0.849,0.813,�k,7.0,��
2018/04/23,07:50,0.869,1.452,0.900,1.668,1.158,0.481,0.848,0.814,�k,6.7,��
2018/04/23,08:00,0.868,1.449,0.898,1.666,1.161,0.480,0.849,0.814,�k,6.0,��
2018/04/23,08:10,0.870,1.448,0.901,1.667,1.160,0.479,0.849,0.816,�k,6.7,��
2018/04/23,08:20,0.868,1.451,0.900,1.669,1.161,0.480,0.849,0.816,�k,5.8,��
2018/04/23,08:30,0.868,1.453,0.899,1.667,1.161,0.480,0.848,0.817,�k,5.9,�L
2018/04/23,08:40,0.868,1.451,0.899,1.665,1.160,0.481,0.848,0.816,�k,6.4,�L
2018/04/23,08:50,0.868,1.448,0.899,1.670,1.162,0.480,0.848,0.814,�k,6.7,�L
2018/04/23,09:00,0.870,1.451,0.899,1.667,1.161,0.481,0.848,0.815,�k,6.4,�L
2018/04/23,09:10,0.868,1.449,0.898,1.666,1.159,0.480,0.848,0.816,�k,6.2,�L
2018/04/23,09:20,0.869,1.448,0.899,1.666,1.161,0.479,0.847,0.815,�k,6.9,�L
2018/04/23,09:30,0.866,1.448,0.896,1.664,1.159,0.480,0.848,0.815,�k,6.7,�L
2018/04/23,09:40,0.870,1.448,0.900,1.666,1.159,0.481,0.849,0.815,�k,6.5,�L
2018/04/23,09:50,0.867,1.450,0.896,1.667,1.157,0.481,0.849,0.816,�k,6.7,�L
2018/04/23,10:00,0.868,1.447,0.899,1.665,1.160,0.481,0.848,0.815,�k,6.9,��
2018/04/23,10:10,0.869,1.447,0.898,1.666,1.158,0.482,0.850,0.815,�k,7.4,�L
2018/04/23,10:20,0.869,1.451,0.899,1.668,1.161,0.481,0.849,0.815,�k,7.7,�L
2018/04/23,10:30,0.868,1.453,0.899,1.667,1.161,0.480,0.851,0.816,�k,8.3,�L
2018/04/23,10:40,0.867,1.450,0.898,1.668,1.161,0.479,0.848,0.816,�k,9.0,�L
2018/04/23,10:50,0.868,1.450,0.897,1.665,1.162,0.480,0.848,0.814,�k,9.4,�L
2018/04/23,11:00,0.869,1.449,0.899,1.667,1.162,0.480,0.848,0.814,�k,7.6,�L
2018/04/23,11:10,0.867,1.449,0.902,1.667,1.160,0.481,0.849,0.815,�k,7.6,�L
2018/04/23,11:20,0.867,1.447,0.899,1.666,1.161,0.481,0.849,0.813,�k,7.7,�L
2018/04/23,11:30,0.871,1.447,0.897,1.668,1.160,0.481,0.850,0.814,�k,6.9,��
2018/04/23,11:40,0.868,1.451,0.900,1.667,1.160,0.479,0.851,0.816,�k,6.1,��
2018/04/23,11:50,0.869,1.449,0.898,1.667,1.161,0.481,0.848,0.813,�k,7.1,��
2018/04/23,12:00,0.869,1.449,0.901,1.665,1.159,0.480,0.849,0.815,�k,7.1,��
2018/04/23,12:10,0.870,1.448,0.900,1.667,1.159,0.480,0.849,0.814,�k,6.5,��
2018/04/23,12:20,0.869,1.451,0.899,1.667,1.158,0.480,0.848,0.816,�k,6.0,��
2018/04/23,12:30,0.868,1.447,0.899,1.666,1.160,0.479,0.849,0.814,�k,6.7,��
2018/04/23,12:40,0.869,1.450,0.900,1.668,1.161,0.481,0.848,0.814,�k,6.8,��
2018/04/23,12:50,0.870,1.449,0.900,1.668,1.160,0.479,0.850,0.815,�k,6.6,��
2018/04/23,13:00,0.869,1.447,0.900,1.668,1.160,0.481,0.848,0.813,�k,7.3,��
2018/04/23,13:10,0.868,1.448,0.897,1.666,1.160,0.479,0.849,0.814,�k,6.3,��
2018/04/23,13:20,0.868,1.447,0.897,1.667,1.160,0.481,0.850,0.814,�k�k��,6.2,��
2018/04/23,13:30,0.869,1.448,0.901,1.667,1.157,0.480,0.846,0.813,�k�k��,7.0,��
2018/04/23,13:40,0.867,1.449,0.899,1.668,1.157,0.478,0.850,0.812,�k,6.5,��
2018/04/23,13:50,0.868,1.448,0.899,1.671,1.160,0.479,0.848,0.812,�k�k��,5.2,��
2018/04/23,14:00,0.867,1.449,0.898,1.665,1.161,0.479,0.849,0.812,�k�k��,6.9,��
2018/04/23,14:10,0.867,1.453,0.901,1.668,1.160,0.481,0.849,0.812,�k�k��,6.6,��
2018/04/23,14:20,0.870,1.455,0.901,1.669,1.159,0.480,0.850,0.814,�k�k��,7.0,��
2018/04/23,14:30,0.870,1.449,0.901,1.666,1.160,0.481,0.850,0.813,�k�k��,6.8,��
2018/04/23,14:40,0.871,1.449,0.900,1.666,1.160,0.481,0.849,0.813,�k�k��,7.0,��
2018/04/23,14:50,0.868,1.452,0.902,1.664,1.161,0.481,0.848,0.814,�k�k��,6.5,��
2018/04/23,15:00,0.868,1.448,0.897,1.667,1.158,0.482,0.848,0.813,�k�k��,6.8,�L
2018/04/23,15:10,0.871,1.451,0.900,1.667,1.158,0.481,0.849,0.813,�k�k��,6.5,�L
2018/04/23,15:20,0.870,1.452,0.902,1.667,1.157,0.481,0.850,0.813,�k�k��,6.4,�L
2018/04/23,15:30,0.869,1.447,0.900,1.668,1.159,0.480,0.851,0.814,�k�k��,6.6,�L
2018/04/23,15:40,0.869,1.453,0.899,1.667,1.159,0.482,0.848,0.813,�k�k��,6.4,�L
2018/04/23,15:50,0.871,1.452,0.901,1.668,1.159,0.480,0.849,0.814,�k�k��,6.0,�L
2018/04/23,16:00,0.869,1.452,0.900,1.668,1.161,0.482,0.849,0.814,�k�k��,5.9,�L
2018/04/23,16:10,0.869,1.452,0.900,1.666,1.158,0.481,0.849,0.816,�k�k��,5.9,�L
2018/04/23,16:20,0.869,1.453,0.900,1.666,1.163,0.481,0.849,0.815,�k�k��,6.0,�L
2018/04/23,16:30,0.869,1.452,0.899,1.668,1.161,0.483,0.851,0.815,�k�k��,5.7,�L
2018/04/23,16:40,0.869,1.452,0.900,1.668,1.162,0.480,0.849,0.817,�k�k��,5.3,�L
2018/04/23,16:50,0.870,1.455,0.897,1.672,1.163,0.481,0.851,0.816,�k�k��,5.6,��
2018/04/23,17:00,0.871,1.453,0.898,1.671,1.161,0.481,0.849,0.815,�k�k��,5.6,��
2018/04/23,17:10,0.870,1.451,0.899,1.669,1.162,0.481,0.851,0.815,�k�k��,5.4,��
2018/04/23,17:20,0.869,1.452,0.901,1.670,1.163,0.482,0.850,0.816,�k�k��,5.7,��
2018/04/23,17:30,0.868,1.452,0.901,1.670,1.161,0.484,0.851,0.816,�k�k��,4.4,��
2018/04/23,17:40,0.872,1.451,0.899,1.669,1.163,0.481,0.852,0.817,�k�k��,3.8,��
2018/04/23,17:50,0.869,1.450,0.901,1.669,1.163,0.482,0.850,0.813,�k�k��,4.1,��
2018/04/23,18:00,0.869,1.453,0.902,1.669,1.159,0.478,0.850,0.814,�k,4.4,��
2018/04/23,18:10,0.867,1.450,0.901,1.668,1.161,0.482,0.851,0.815,�k,4.8,��
2018/04/23,18:20,0.870,1.451,0.900,1.670,1.162,0.480,0.850,0.815,�k,5.2,��
2018/04/23,18:30,0.869,1.453,0.900,1.670,1.162,0.482,0.849,0.813,�k�k��,4.4,��
2018/04/23,18:40,0.869,1.453,0.901,1.668,1.161,0.481,0.850,0.815,�k,4.5,�L
2018/04/23,18:50,0.868,1.451,0.900,1.667,1.164,0.482,0.851,0.815,�k,5.0,�L
2018/04/23,19:00,0.870,1.450,0.900,1.667,1.162,0.481,0.850,0.815,�k,3.4,�L
2018/04/23,19:10,0.867,1.452,0.900,1.666,1.161,0.481,0.849,0.816,�k�k��,4.2,�L
2018/04/23,19:20,0.869,1.449,0.901,1.667,1.160,0.481,0.849,0.816,�k�k��,3.6,�L
2018/04/23,19:30,0.868,1.451,0.901,1.667,1.163,0.482,0.849,0.814,�k�k��,3.6,�L
2018/04/23,19:40,0.868,1.450,0.899,1.666,1.163,0.481,0.850,0.813,�k�k��,3.6,�L
2018/04/23,19:50,0.869,1.450,0.900,1.668,1.160,0.480,0.849,0.815,�k��,4.3,�L
2018/04/23,20:00,0.869,1.452,0.900,1.666,1.160,0.481,0.849,0.815,�k��,4.6,�L
2018/04/23,20:10,0.868,1.450,0.899,1.667,1.160,0.481,0.849,0.815,�k��,4.5,�L
2018/04/23,20:20,0.866,1.448,0.900,1.668,1.160,0.481,0.850,0.815,�k�k��,4.6,�L
2018/04/23,20:30,0.867,1.450,0.899,1.665,1.159,0.482,0.851,0.814,�k��,5.3,�L
2018/04/23,20:40,0.866,1.446,0.896,1.665,1.161,0.481,0.849,0.814,�k��,5.3,�L
2018/04/23,20:50,0.866,1.449,0.898,1.666,1.157,0.481,0.848,0.815,�k�k��,5.4,�L
2018/04/23,21:00,0.866,1.448,0.897,1.664,1.158,0.481,0.848,0.814,�k�k��,5.1,�L
2018/04/23,21:10,0.868,1.448,0.898,1.664,1.159,0.480,0.849,0.814,�k�k��,5.4,�L
2018/04/23,21:20,0.865,1.444,0.897,1.665,1.156,0.480,0.850,0.814,�k�k��,5.9,�L
2018/04/23,21:30,0.866,1.444,0.897,1.663,1.157,0.481,0.848,0.817,�k�k��,4.7,�L
2018/04/23,21:40,0.866,1.447,0.897,1.664,1.158,0.480,0.848,0.814,�k�k��,4.7,�L
2018/04/23,21:50,0.866,1.444,0.897,1.662,1.155,0.480,0.851,0.814,�k�k��,4.9,�L
2018/04/23,22:00,0.866,1.445,0.899,1.661,1.157,0.480,0.850,0.815,�k�k��,5.2,��
2018/04/23,22:10,0.865,1.447,0.897,1.663,1.158,0.482,0.850,0.814,�k�k��,5.4,��
2018/04/23,22:20,0.862,1.445,0.896,1.662,1.157,0.481,0.850,0.814,�k��,5.5,�L
2018/04/23,22:30,0.863,1.445,0.898,1.661,1.155,0.480,0.847,0.814,�k��,5.0,��
2018/04/23,22:40,0.864,1.447,0.897,1.661,1.156,0.482,0.849,0.815,�k�k��,5.2,��
2018/04/23,22:50,0.865,1.445,0.896,1.664,1.157,0.479,0.849,0.816,�k�k��,5.7,��
2018/04/23,23:00,0.864,1.446,0.896,1.660,1.159,0.479,0.849,0.814,�k��,6.1,��
2018/04/23,23:10,0.865,1.444,0.897,1.663,1.156,0.480,0.847,0.815,�k�k��,5.7,��
2018/04/23,23:20,0.865,1.445,0.898,1.662,1.155,0.480,0.847,0.814,�k�k��,5.7,�L
2018/04/23,23:30,0.865,1.446,0.896,1.662,1.156,0.479,0.848,0.814,�k��,5.6,��
2018/04/23,23:40,0.865,1.447,0.898,1.662,1.156,0.480,0.848,0.814,�k��,6.2,�L
2018/04/23,23:50,0.864,1.447,0.897,1.662,1.157,0.480,0.850,0.814,�k�k��,5.7,�L
